Location: Civry
(47.2902°N, 4.6156°E)
Time: 09:19:58
(UTC+00:00)

SL-16 R/B - Pass Details

Date: 09 April 2020
Orbit: 842 x 846 km, 71.0° (Epoch: 06 June)

Event Time Altitude Azimuth Distance (km) Brightness Sun altitude
Rises 21:28:38 0° 338° (NNW) 3,414 6.5 -27.2°
Reaches altitude 10° 21:31:31 10° 351° (N) 2,476 5.4 -27.5°
Maximum altitude 21:36:13 26° 47° (NE) 1,610 3.7 -28.0°
Enters shadow 21:36:45 26° 56° (NE) 1,623 3.6 -28.0°
